Theta_e
307 307 308 309 309 310 311 310 310 310 309 309 308 308 309 309 309 312 315 314 316 316 316 316 318 316 314 319 319 320 323 325 326 332 338 334 335 334 335 336 344 347 354 354 355
309 309 308 308 308 307 308 308 309 309 309 309 308 307 308 308 310 312 312 313 315 316 316 319 320 318 317 317 320 320 322 324 325 326 334 335 334 334 334 336 346 354 357 357 355
307 307 308 309 310 308 306 305 306 308 309 309 309 308 307 308 312 313 316 315 315 316 316 318 320 318 317 318 320 320 321 323 324 325 327 334 335 334 334 335 341 354 359 359 357
306 306 306 307 307 308 308 308 307 308 308 308 308 308 307 309 317 321 316 316 318 316 318 319 321 320 317 318 320 320 320 323 324 325 327 332 334 335 333 335 338 350 358 358 359
305 305 305 305 305 306 306 307 308 307 306 306 307 307 308 311 311 315 313 316 318 318 320 321 322 322 318 318 320 320 321 322 323 325 328 331 333 333 333 334 343 353 358 358 358
304 304 305 305 305 305 305 305 305 307 307 307 307 308 309 312 310 310 311 312 316 319 320 321 322 322 318 317 320 320 320 321 322 324 327 328 331 332 333 334 342 348 358 359 359
304 304 305 305 305 305 304 304 305 305 307 308 308 309 310 312 310 311 313 313 317 319 320 320 321 321 319 318 319 321 320 321 322 325 325 327 329 332 333 334 342 353 357 358 358
304 304 304 304 305 305 305 305 304 305 305 306 307 308 312 310 310 310 313 315 317 318 320 319 320 320 318 317 319 320 321 321 322 325 325 326 329 331 333 335 343 351 356 356 356
305 305 304 305 305 305 305 304 305 305 306 306 307 309 311 309 310 310 310 313 317 316 318 317 319 319 317 318 319 321 321 321 323 324 325 327 329 330 335 340 344 350 356 357 356
305 304 304 305 305 306 305 305 305 306 307 306 306 310 310 311 311 312 311 312 314 317 319 317 316 317 317 319 320 321 321 321 324 324 324 327 328 332 335 344 346 349 354 356 356
304 304 305 306 307 307 306 307 310 309 310 310 311 310 312 310 315 314 312 314 316 318 319 317 317 319 318 319 320 321 321 322 322 324 323 326 327 331 334 342 348 352 354 357 356
304 304 305 306 305 306 306 307 307 308 310 310 310 311 310 314 316 317 314 317 318 322 316 316 317 318 317 318 320 321 321 322 322 323 324 325 326 330 333 335 339 345 353 351 343
303 305 306 305 307 308 306 306 306 307 311 312 312 311 313 313 314 316 315 316 319 319 315 316 317 317 317 318 320 321 321 321 322 322 323 324 327 327 333 333 335 335 337 338 336
304 306 306 306 308 307 308 307 307 308 315 316 315 313 312 313 314 311 315 317 318 319 313 315 316 316 316 317 319 320 319 319 320 324 325 324 325 327 329 334 335 335 334 334 334
303 308 307 306 309 309 307 308 308 308 326 316 314 314 313 316 316 316 316 316 317 315 314 316 316 315 316 317 318 319 319 319 320 324 324 324 324 327 328 332 335 335 333 332 332
303 308 309 310 312 308 308 309 308 317 330 320 315 318 314 316 315 314 316 317 317 314 314 314 315 315 315 316 318 317 318 320 321 322 324 324 324 326 327 330 330 333 334 333 333
304 308 309 312 313 311 310 311 319 327 318 319 318 316 318 319 317 316 317 322 319 314 315 313 313 315 315 316 315 318 318 320 320 323 325 323 324 325 329 328 330 332 333 333 333
306 309 312 312 313 312 313 318 326 320 319 315 317 320 321 319 317 320 321 324 315 314 318 313 314 315 315 317 318 319 319 319 323 323 324 323 325 324 325 328 328 331 332 333 333
309 313 312 311 313 313 318 323 323 319 317 320 321 321 324 321 316 317 322 320 317 319 316 315 312 312 314 316 318 319 318 318 319 320 319 320 322 323 323 324 327 328 329 330 330
309 314 312 312 314 317 319 319 319 316 318 318 326 322 322 322 317 317 320 320 321 319 320 316 315 312 313 315 317 318 319 321 322 324 321 321 321 322 323 324 325 325 327 328 329
310 315 311 312 315 317 319 316 316 315 317 320 324 327 322 316 316 317 320 318 317 320 320 317 316 315 312 314 315 317 320 321 323 322 325 324 324 323 325 324 325 326 325 326 327
312 314 311 312 316 316 317 314 313 316 316 318 321 326 324 316 316 317 318 316 316 317 318 319 317 314 312 314 315 317 319 321 324 325 324 325 326 323 324 324 324 324 324 325 326
312 313 312 312 317 315 314 315 316 317 317 317 322 324 326 318 317 317 316 316 317 317 320 318 319 317 315 315 315 316 318 319 321 323 327 330 332 325 328 329 329 328 329 329 330
310 311 313 314 314 315 316 316 315 316 315 316 320 324 326 317 317 316 319 317 317 319 324 323 319 317 317 317 316 317 317 319 321 325 323 324 327 327 328 329 331 331 331 332 334
309 310 310 314 314 316 315 316 315 317 314 317 322 323 326 327 319 319 321 318 317 319 319 325 321 319 319 318 317 317 316 317 318 321 324 328 326 324 328 333 332 333 333 336 337
309 309 307 309 313 314 315 316 315 316 317 319 319 321 326 329 328 329 327 318 318 320 321 325 327 323 320 317 317 318 317 317 319 322 324 323 328 333 333 332 333 335 337 338 338
305 305 307 310 310 312 313 314 315 314 316 314 316 320 324 324 323 325 328 330 328 321 323 324 328 327 324 319 319 320 318 319 319 320 320 323 330 331 333 334 335 333 331 327 325
Wind_Speed
20 18 19 19 20 19 18 17 17 17 16 15 18 18 18 18 21 22 24 19 9 13 23 20 15 15 20 19 25 24 18 22 31 34 28 23 22 16 14 5 6 6 8 25 25
19 19 19 19 19 21 21 19 18 18 17 17 15 16 18 19 23 30 30 29 24 18 14 17 15 16 17 19 21 23 22 33 28 28 27 24 24 19 15 14 10 7 5 25 27
20 20 20 19 19 20 20 22 21 20 18 17 16 14 16 16 21 14 4 13 31 22 21 20 18 17 22 19 26 30 28 27 28 25 27 27 30 25 21 20 15 16 15 20 23
21 20 21 21 22 21 20 20 20 20 19 18 16 15 13 12 7 13 6 10 16 22 19 21 18 21 23 28 27 27 32 27 28 27 17 28 24 21 23 17 12 21 19 20 22
23 22 22 22 23 23 24 22 21 21 20 20 18 16 12 14 18 13 11 7 8 19 23 21 23 22 26 26 27 32 27 29 28 26 13 16 24 17 23 16 2 14 21 20 19
24 25 25 24 25 24 25 25 26 22 21 18 17 15 17 23 20 24 24 18 17 24 23 23 19 21 20 26 28 25 29 25 31 27 16 19 26 22 16 17 9 12 17 19 21
28 29 27 28 28 27 26 27 26 24 21 19 17 17 20 24 14 16 13 18 20 18 21 25 27 20 24 24 26 28 27 30 29 23 17 22 21 26 22 11 15 15 17 18 20
31 32 32 31 31 30 28 27 27 22 21 18 17 18 12 17 28 34 14 15 10 13 15 15 23 22 23 20 27 29 27 26 26 25 23 22 26 20 22 19 20 18 17 18 18
34 35 36 35 33 31 30 29 26 24 21 17 17 15 19 15 27 29 32 25 15 11 12 15 21 19 20 23 23 22 22 30 29 29 23 23 22 21 16 18 20 19 19 17 17
37 39 39 37 33 29 26 25 26 19 14 11 16 9 21 15 14 21 26 23 17 14 11 15 14 16 20 22 24 29 31 30 27 32 30 23 23 23 14 19 20 22 21 18 20
41 42 39 35 32 27 17 13 7 5 11 10 13 16 10 11 9 10 25 19 12 16 16 21 15 24 31 29 30 27 29 29 29 24 30 27 25 22 21 15 6 20 19 17 22
43 41 37 34 26 12 4 3 6 8 8 16 15 18 12 11 4 5 20 12 11 17 19 19 21 25 26 27 28 28 32 29 29 25 29 27 26 23 21 20 15 10 21 19 11
44 38 34 26 8 3 6 2 0 4 4 5 13 16 14 21 5 9 18 11 14 17 21 19 22 27 26 25 26 25 28 30 28 25 27 25 22 26 25 16 14 11 14 20 19
44 30 29 13 5 11 8 8 4 3 4 5 9 5 12 2 1 8 9 11 9 19 18 13 21 20 24 26 25 23 22 28 23 21 14 27 16 27 20 23 19 20 7 8 16
37 25 18 11 6 9 9 3 7 2 2 6 4 6 11 1 7 4 6 4 16 18 15 15 20 20 22 23 24 16 23 21 20 24 20 26 20 25 23 24 31 23 20 15 11
25 18 19 10 7 11 6 5 2 3 6 5 5 5 13 2 7 14 5 9 18 22 21 10 17 15 14 17 19 9 19 14 16 15 15 23 23 18 25 22 24 27 29 24 15
20 14 11 11 11 11 9 7 4 5 11 7 4 7 8 8 14 11 10 10 12 17 12 14 18 16 15 18 18 16 19 13 11 11 12 22 20 18 30 29 26 23 20 20 16
15 12 8 13 12 12 11 3 7 10 6 3 6 12 5 7 20 18 13 9 19 18 14 15 20 22 21 20 19 24 23 14 19 13 16 20 15 22 6 27 24 22 21 18 19
13 9 11 16 12 11 6 7 6 5 8 10 9 8 8 9 9 15 16 9 8 15 8 15 17 24 20 17 19 21 23 21 19 21 17 16 19 11 16 9 15 23 23 22 20
14 12 19 16 11 14 6 5 8 9 11 5 4 4 7 13 16 14 6 13 12 7 6 6 14 18 23 21 21 18 18 5 10 19 12 12 17 11 13 19 13 11 13 12 11
10 4 18 18 13 3 4 7 8 13 11 4 7 4 13 12 15 16 16 10 12 9 16 7 15 13 21 18 18 15 13 11 11 5 14 11 14 15 18 14 16 15 17 17 18
9 5 17 22 8 5 7 10 8 13 12 5 7 10 12 13 13 10 9 6 8 7 3 3 7 13 22 15 17 16 20 13 6 7 2 2 5 8 17 17 17 17 16 14 11
8 4 10 20 6 8 11 14 9 13 10 8 7 9 12 8 8 7 7 10 9 11 3 7 8 13 16 12 17 14 14 11 7 6 6 7 5 8 9 11 5 6 7 5 9
6 5 3 2 7 9 12 12 12 9 6 9 6 8 13 11 9 9 11 12 11 9 6 5 8 14 12 15 16 18 17 16 10 5 7 6 17 15 14 12 11 6 5 7 8
5 5 4 6 8 13 10 11 13 12 5 8 4 12 9 6 10 12 11 9 16 4 4 5 13 14 12 16 17 18 18 19 15 14 14 21 12 13 15 14 9 8 7 10 7
7 5 7 11 11 13 6 11 13 14 4 8 10 17 12 5 8 6 11 12 12 8 9 2 5 6 14 17 17 15 17 20 18 17 15 13 15 17 14 13 11 12 14 12 10
14 10 3 11 7 8 8 12 12 12 3 6 12 13 10 9 13 12 10 15 10 11 10 7 6 10 9 19 18 17 18 18 15 15 9 2 20 14 16 14 14 14 15 16 15
Wind_Direction
345 336 330 319 313 309 314 311 304 302 299 298 305 301 301 300 296 275 258 245 246 249 257 277 261 227 226 236 224 218 235 235 227 229 236 210 206 198 229 277 215 190 5 145 150
335 331 330 326 319 315 309 309 308 304 300 298 300 305 303 305 293 275 260 255 246 245 244 238 229 213 215 221 219 217 225 229 234 235 232 251 198 197 212 213 180 170 118 137 156
333 330 329 327 321 314 316 306 301 300 301 297 294 299 303 305 293 263 92 245 230 221 232 249 246 228 219 219 216 217 225 229 239 246 245 231 269 195 208 221 199 175 158 154 165
335 329 324 320 315 312 309 303 298 295 293 294 292 289 295 277 262 120 59 26 197 201 218 226 233 226 220 216 216 220 227 235 233 235 242 233 224 245 219 210 234 163 159 166 171
334 327 323 322 318 311 304 301 298 293 287 281 282 281 278 242 247 258 285 274 162 201 218 214 219 219 221 218 219 223 223 226 241 238 221 253 222 239 226 213 195 151 156 173 172
329 325 322 317 314 310 307 301 291 290 284 281 276 267 248 252 256 257 252 249 238 203 216 223 223 223 237 229 223 219 225 222 232 240 207 220 235 236 219 208 192 174 172 178 178
329 324 320 315 312 307 304 298 296 291 288 285 280 264 255 243 258 257 232 235 230 236 218 217 222 220 223 224 229 229 220 233 217 230 204 221 225 222 230 167 195 175 183 179 174
328 324 321 318 310 306 301 299 298 292 281 274 273 270 262 258 247 252 247 233 203 236 249 227 218 233 221 233 221 220 223 216 210 218 207 196 221 199 233 185 200 184 179 174 168
329 326 325 318 311 304 299 297 292 281 275 263 262 238 263 250 233 237 226 237 218 234 224 239 213 223 220 223 217 210 211 212 201 207 204 203 225 187 187 212 196 186 174 178 172
330 329 327 321 314 307 304 296 284 283 262 240 240 269 243 250 222 206 219 213 225 213 195 206 202 206 218 212 208 200 217 199 210 192 218 201 226 164 186 217 198 186 171 182 171
334 333 331 328 323 314 309 303 212 190 201 197 194 227 358 184 129 201 180 196 195 210 195 191 189 205 200 216 208 198 204 207 212 190 204 207 212 210 179 207 232 180 180 183 164
339 337 334 332 328 339 326 292 359 344 279 233 268 240 280 95 16 231 168 158 191 198 193 179 209 211 199 213 223 204 197 217 198 196 198 208 205 208 190 190 201 248 182 163 162
342 341 340 343 29 357 33 270 281 347 263 80 287 216 225 230 151 285 168 180 189 193 192 193 194 227 200 203 220 222 199 216 194 210 188 210 206 220 172 202 189 277 276 162 168
344 347 347 351 302 346 46 358 22 285 281 14 348 294 216 274 78 195 213 163 179 209 186 198 192 208 198 196 211 210 227 206 213 165 192 207 201 208 193 185 170 186 234 228 168
347 350 5 13 334 356 328 346 359 142 350 12 328 267 123 56 152 105 165 245 195 199 173 191 186 189 203 198 204 222 205 219 216 182 193 201 224 188 199 189 186 198 205 234 164
348 343 5 358 295 349 335 294 220 254 36 11 326 216 162 125 187 150 192 244 250 159 202 154 165 201 211 185 202 251 198 199 205 202 212 193 214 197 191 201 203 202 201 199 203
343 334 334 336 339 337 334 297 267 12 339 352 355 162 124 194 135 177 198 221 208 167 185 165 149 190 238 179 206 214 184 189 196 199 212 203 198 241 191 194 198 200 199 193 198
342 313 310 345 325 324 320 259 17 356 356 322 263 147 172 165 166 178 204 180 173 183 175 162 164 168 212 206 185 192 187 189 183 198 199 177 198 216 198 192 197 193 197 187 201
341 313 12 351 338 316 287 25 5 352 321 331 301 184 123 220 169 203 162 189 164 216 169 157 170 171 201 203 208 201 189 195 188 199 204 195 204 215 203 163 196 206 203 202 208
328 287 22 343 330 299 358 358 353 351 327 282 301 100 199 189 167 205 127 203 187 197 255 204 148 189 178 214 210 230 204 169 225 194 201 191 173 203 190 177 182 219 223 216 197
286 300 8 336 299 21 34 3 323 335 358 310 319 295 219 153 167 182 176 177 150 224 233 171 156 163 174 205 192 206 225 230 244 211 192 171 192 211 174 192 181 194 194 207 219
299 3 357 343 44 1 23 311 348 339 16 325 280 312 317 151 178 190 154 161 214 159 218 17 160 162 179 197 198 213 206 217 198 181 214 187 72 119 166 182 197 193 202 202 210
329 312 37 35 41 8 349 355 4 0 359 346 317 327 297 170 182 181 166 154 205 182 323 161 152 161 179 199 186 219 208 198 256 277 210 135 200 148 109 109 171 164 137 181 220
324 339 14 330 48 15 358 1 9 9 339 333 283 310 316 169 179 173 173 154 190 134 331 23 173 182 183 192 179 205 201 186 218 207 215 122 148 144 153 149 132 150 167 161 200
13 28 24 312 349 332 20 5 0 6 321 346 305 348 338 275 171 172 145 171 174 113 217 285 189 205 199 166 185 190 191 189 195 211 223 147 173 162 154 118 125 122 140 115 89
346 352 343 287 290 309 44 8 358 349 322 345 345 330 328 28 1 22 334 163 180 148 245 173 270 260 185 159 187 184 181 193 197 207 143 234 87 96 102 122 120 105 93 98 93
360 348 273 286 321 317 11 338 346 352 307 329 331 322 325 352 323 298 301 296 306 180 208 233 201 225 159 168 182 187 185 192 196 213 222 252 138 129 112 106 103 102 98 98 90